Weather in Conakry

Guinea     9°37′42″N   13°35′18″W
temp.,
°C
wind,
m/s
gust,
m/s
humid.,
%
clouds,
%
prec.,
mm/h
press.,
hPa
HPBL,
m
6 march, sat
sat600:00+24wsw018538 0.0 101182
03:00+23w008974 0.0 101182
06:00+23nnw129284 0.0 101185
09:00+27nne0173100 0.0 1013566
12:00+33sw3343100 0.0 10131219
15:00+33wsw544144 0.0 1009907
18:00+28wsw455868 0.0 1009510
21:00+25wsw2377100 0.0 1012108
7 march, sun
sun700:00+24nw1179100 0.0 101374
03:00+23nw018281 0.1 101380
06:00+22ne118667 0.3 101372
09:00+27nne116357 0.0 1014470
12:00+35sw213378 0.0 10131129
15:00+34wsw533017 0.0 1010966
18:00+29wsw56478 0.0 1009505
21:00+24wnw12740 0.0 101189
8 march, mon
mon800:00+23wnw11780 0.0 101382
03:00+22n11821 0.0 101186
06:00+21n12860 0.0 101178
09:00+27ne11630 0.0 1012422
12:00+35sw22260 0.0 10111150
15:00+33wsw65320 0.0 1008757
18:00+28sw46520 0.0 1007553
21:00+24sw22740 0.0 101087
9 march, tue
tue900:00+23w11790 0.0 101182
03:00+22nnw11847 0.0 101089
06:00+22nne12874 0.0 101096
09:00+27ene11640 0.0 1011443
12:00+33sw43340 0.0 10101231
15:00+32sw65400 0.0 1007834
18:00+28sw56550 0.0 1007612
21:00+24sw22740 0.0 101088
10 march, wed
wed1000:00+23w11780 0.0 101182
03:00+22nne11840 0.0 101085
06:00+22nne12871 0.0 101077
09:00+27ene11630 0.0 1012394
12:00+34sw32330 0.0 10111273
15:00+33sw54370 0.0 1007912
18:00+28sw565410 0.0 1007597
21:00+24ssw22740 0.0 101090